Location: Acheville
(50.3840°N, 2.8827°E)
Time: 10:53:54
(UTC+00:00)

Cosmos 371 Rocket - Pass Details

Date: 24 October 2021
Orbit: 683 x 699 km, 74.0° (Epoch: 01 December)

Event Time Altitude Azimuth Distance (km) Brightness Sun altitude
Rises 18:06:09 0° 204° (SSW) 3,060 7.0 -14.6°
Reaches altitude 10° 18:08:27 10° 205° (SSW) 2,149 6.2 -14.9°
Maximum altitude 18:13:18 84° 294° (WNW) 708 3.3 -15.7°
Drops below altitude 10° 18:18:13 10° 23° (NNE) 2,172 5.6 -16.5°
Sets 18:20:33 0° 24° (NNE) 3,095 6.4 -16.9°
